Weather reports worldwide

Advertisment
Cap Corse, France (7785): temperature & dewpoint: 07.07.2020 06:00:00 - 13.07.2020 06:00:00 (CEST)Cap Corse, France (7785): wind speed & gusts: 07.07.2020 06:00:00 - 13.07.2020 06:00:00 (CEST)Cap Corse, France (7785): wind direction: 07.07.2020 06:00:00 - 13.07.2020 06:00:00 (CEST)Cap Corse, France (7785): reduced air pressure: 07.07.2020 06:00:00 - 13.07.2020 06:00:00 (CEST)Cap Corse, France (7785): visibility: 07.07.2020 06:00:00 - 13.07.2020 06:00:00 (CEST)Cap Corse, France (7785): precipitation: 07.07.2020 06:00:00 - 13.07.2020 06:00:00 (CEST)
Date & Time tt [°C] td [°C] ff [km/h] ff [kn] fx [km/h] fx [kn] dd ppp [hPa] vv [km] rr [mm]
13.07.2020 06:00:00 23,1 11,2 35 19 56 30 ESE 1017,1 - 0,0
13.07.2020 05:00:00 23,1 12,7 40 22 65 35 E 1017,2 - 0,0
13.07.2020 04:00:00 23,7 13,3 45 24 65 35 E 1017,2 - 0,0
13.07.2020 03:00:00 24,0 14,1 45 25 62 34 E 1017,3 - 0,0
13.07.2020 02:00:00 24,3 14,4 37 20 54 29 E 1017,5 - 0,0
13.07.2020 01:00:00 24,8 15,1 33 18 50 27 E 1017,5 - 0,0
13.07.2020 00:00:00 25,0 17,2 27 15 40 22 ESE 1017,7 - 0,0
12.07.2020 23:00:00 25,1 19,2 28 15 37 20 E 1017,8 - 0,0
12.07.2020 22:00:00 24,9 20,4 16 8 25 14 E 1017,7 - 0,0
12.07.2020 21:00:00 25,3 18,7 16 9 29 16 ESE 1016,7 - 0,0
12.07.2020 20:00:00 26,0 19,2 18 10 28 15 E 1016,6 16 0,0
12.07.2020 19:00:00 27,0 18,6 16 9 27 15 E 1016,5 - 0,0
12.07.2020 18:00:00 26,8 20,4 13 7 28 15 E 1017,0 - 0,0
12.07.2020 17:00:00 27,4 21,4 22 12 33 18 ENE 1016,8 - 0,0
12.07.2020 16:00:00 27,6 20,7 24 13 31 17 E 1017,0 - 0,0
12.07.2020 15:00:00 27,6 20,4 24 13 36 19 E 1017,2 - 0,0
12.07.2020 14:00:00 28,3 20,3 26 14 34 18 E 1017,4 16 0,0
12.07.2020 13:00:00 27,6 19,9 26 14 39 21 E 1017,3 - 0,0
12.07.2020 12:00:00 27,3 19,4 31 17 46 25 E 1017,2 - 0,0
12.07.2020 11:00:00 26,8 20,4 35 19 42 23 E 1016,8 16 0,0
12.07.2020 10:00:00 26,9 21,0 24 13 37 20 E 1016,6 - 0,0
12.07.2020 09:00:00 26,7 19,1 29 16 40 22 E 1016,3 - 0,0
12.07.2020 08:00:00 25,0 20,9 27 15 41 22 E 1016,1 15 0,0
12.07.2020 07:00:00 23,8 21,1 18 10 26 14 ESE 1015,9 - 0,0
12.07.2020 06:00:00 22,3 20,4 18 10 22 12 ESE 1015,4 - 0,0
12.07.2020 05:00:00 22,2 20,3 14 8 22 12 E 1015,2 - 0,0
12.07.2020 04:00:00 22,9 20,8 17 9 23 12 E 1015,2 - 0,0
12.07.2020 03:00:00 22,5 20,6 13 7 22 12 ESE 1015,3 - 0,0
12.07.2020 02:00:00 22,7 20,6 15 8 22 12 E 1015,2 - 0,0
12.07.2020 01:00:00 22,5 18,5 11 6 18 10 E 1015,3 - 0,0
12.07.2020 00:00:00 21,9 18,5 0 0 14 8 N 1015,6 - 0,0
11.07.2020 23:00:00 23,2 19,8 5 3 31 17 W 1015,5 - 0,0
11.07.2020 22:00:00 24,4 17,9 19 10 35 19 W 1015,2 - 0,0
11.07.2020 21:00:00 24,3 18,9 11 6 32 17 W 1014,7 - 0,0
11.07.2020 20:00:00 25,7 19,6 16 9 34 18 W 1014,4 - 0,0
11.07.2020 19:00:00 27,6 18,9 13 7 32 17 WNW 1013,8 - 0,0
11.07.2020 18:00:00 28,0 18,7 20 11 43 23 WNW 1014,3 - 0,0
11.07.2020 17:00:00 27,5 19,8 8 4 16 8 WNW 1014,5 15 0,0
11.07.2020 16:00:00 27,1 20,7 6 3 14 8 ENE 1014,6 - 0,0
11.07.2020 15:00:00 27,2 20,5 5 3 21 11 NE 1014,8 - 0,0
11.07.2020 14:00:00 27,5 20,8 9 5 34 19 NW 1015,1 - 0,0
11.07.2020 13:00:00 27,5 20,8 20 11 33 18 W 1015,1 - 0,0
11.07.2020 12:00:00 27,3 19,1 14 8 43 23 W 1015,1 - 0,0
11.07.2020 11:00:00 26,8 17,8 16 8 43 23 W 1015,1 - 0,0
11.07.2020 10:00:00 26,4 17,5 23 12 40 22 W 1015,1 - 0,0
11.07.2020 09:00:00 25,9 15,9 23 12 40 22 W 1014,8 - 0,0
11.07.2020 08:00:00 25,3 15,3 21 11 35 19 WSW 1014,6 15 0,0
11.07.2020 07:00:00 24,7 15,1 14 8 26 14 W 1014,6 - 0,0
11.07.2020 06:00:00 24,6 11,2 17 9 44 24 WSW 1014,3 - 0,0
11.07.2020 05:00:00 24,2 11,5 21 11 35 19 SW 1014,1 15 0,0
11.07.2020 04:00:00 22,7 15,5 16 9 32 18 W 1014,6 - 0,0
11.07.2020 03:00:00 23,1 15,9 11 6 33 18 W 1015,0 - 0,0
11.07.2020 02:00:00 23,3 15,9 19 11 40 22 WSW 1014,9 - 0,0
11.07.2020 01:00:00 23,1 17,3 21 11 52 28 W 1015,0 - 0,0
11.07.2020 00:00:00 23,2 18,1 23 12 41 22 W 1015,8 - 0,0
10.07.2020 23:00:00 23,3 19,2 31 17 42 23 W 1015,8 - 0,0
10.07.2020 22:00:00 23,6 19,7 25 14 33 18 WNW 1015,3 - 0,0
10.07.2020 21:00:00 23,9 17,2 13 7 19 10 W 1015,1 - 0,0
10.07.2020 20:00:00 25,0 16,4 6 3 10 6 WNW 1014,9 - 0,0
10.07.2020 19:00:00 24,8 17,0 4 2 13 7 ENE 1014,7 - 0,0
10.07.2020 18:00:00 27,0 16,6 6 4 13 7 NW 1014,8 - 0,0
10.07.2020 17:00:00 26,0 15,1 10 6 22 12 WNW 1015,0 15 0,0
10.07.2020 16:00:00 27,5 15,2 18 10 23 13 W 1015,3 - 0,0
10.07.2020 15:00:00 27,4 16,4 16 9 26 14 W 1016,0 - 0,0
10.07.2020 14:00:00 27,8 17,0 18 10 27 15 WNW 1016,2 - 0,0
10.07.2020 13:00:00 27,3 17,5 19 10 27 15 W 1016,8 - 0,0
10.07.2020 12:00:00 26,6 19,0 20 11 30 16 W 1016,7 - 0,0
10.07.2020 11:00:00 26,1 19,2 21 11 28 15 W 1016,8 - 0,0
10.07.2020 10:00:00 25,4 19,1 16 9 23 12 W 1016,8 - 0,0
10.07.2020 09:00:00 24,8 18,7 11 6 14 8 W 1016,8 - 0,0
10.07.2020 08:00:00 25,2 18,6 8 5 11 6 NW 1016,2 - 0,0
10.07.2020 07:00:00 25,6 10,6 7 4 16 8 ESE 1015,8 - 0,0
10.07.2020 06:00:00 23,0 9,4 15 8 28 15 WSW 1015,8 - 0,0
10.07.2020 05:00:00 23,1 12,1 21 11 31 17 WSW 1016,1 - 0,0
10.07.2020 04:00:00 22,0 12,8 16 8 24 13 W 1016,1 - 0,0
10.07.2020 03:00:00 22,5 15,1 19 10 26 14 W 1016,4 - 0,0
10.07.2020 02:00:00 22,7 11,7 16 9 26 14 W 1016,8 - 0,0
10.07.2020 01:00:00 22,8 17,3 18 10 29 16 W 1016,9 - 0,0
10.07.2020 00:00:00 23,4 16,7 11 6 22 12 W 1016,9 - 0,0
09.07.2020 23:00:00 22,9 13,4 11 6 23 13 W 1017,1 - 0,0
09.07.2020 22:00:00 23,6 15,1 11 6 20 11 W 1016,8 - 0,0
09.07.2020 21:00:00 24,9 15,5 15 8 27 15 WNW 1016,6 - 0,0
09.07.2020 20:00:00 27,0 12,6 16 9 25 13 W 1016,4 18 0,0
09.07.2020 19:00:00 27,6 13,2 16 9 27 15 W 1016,5 - 0,0
09.07.2020 18:00:00 27,7 15,4 19 10 24 13 WNW 1016,9 - 0,0
09.07.2020 17:00:00 27,2 16,2 13 7 16 9 WNW 1017,4 - 0,0
09.07.2020 16:00:00 27,7 15,7 10 6 16 9 WNW 1017,6 - 0,0
09.07.2020 15:00:00 28,1 18,8 9 5 14 8 NW 1017,9 - 0,0
09.07.2020 14:00:00 27,4 18,9 6 3 18 10 NE 1018,1 20 0,0
09.07.2020 13:00:00 26,7 19,3 12 6 21 11 E 1018,1 - 0,0
09.07.2020 12:00:00 27,1 19,7 16 9 22 12 E 1018,0 - 0,0
09.07.2020 11:00:00 28,1 17,9 12 7 20 11 E 1017,7 - 0,0
09.07.2020 10:00:00 27,6 17,2 14 8 19 10 E 1017,4 - 0,0
09.07.2020 09:00:00 26,0 17,6 11 6 18 10 E 1017,2 - 0,0
09.07.2020 08:00:00 26,4 13,8 4 2 18 10 E 1017,1 20 0,0
09.07.2020 07:00:00 25,4 12,9 3 1 16 9 N 1017,1 - 0,0
09.07.2020 06:00:00 23,4 11,1 8 4 20 11 W 1016,9 - 0,0
09.07.2020 05:00:00 22,6 10,7 15 8 23 12 W 1016,9 15 0,0
09.07.2020 04:00:00 23,4 11,1 10 5 19 11 W 1016,8 - 0,0
09.07.2020 03:00:00 23,2 9,9 14 8 20 11 W 1017,0 - 0,0
09.07.2020 02:00:00 22,5 10,0 14 8 23 12 W 1017,2 - 0,0
09.07.2020 01:00:00 21,7 13,3 9 5 14 7 W 1017,2 - 0,0
09.07.2020 00:00:00 21,0 15,3 6 3 9 5 WNW 1017,0 - 0,0
08.07.2020 23:00:00 21,5 15,8 5 3 9 5 WNW 1016,7 - 0,0
08.07.2020 22:00:00 21,6 15,7 2 1 9 5 NW 1016,6 - 0,0
08.07.2020 21:00:00 23,3 16,6 4 2 12 7 WNW 1016,0 - 0,0
08.07.2020 20:00:00 25,2 14,3 2 1 8 4 ESE 1015,8 - 0,0
08.07.2020 19:00:00 25,5 13,7 3 2 8 4 E 1015,9 - 0,0
08.07.2020 18:00:00 25,6 13,8 4 2 15 8 ENE 1016,2 - 0,0
08.07.2020 17:00:00 25,9 14,7 8 4 16 9 NE 1016,6 22 0,0
08.07.2020 16:00:00 26,3 13,8 10 6 18 10 E 1016,6 - 0,0
08.07.2020 15:00:00 26,6 13,7 12 7 23 13 E 1016,7 - 0,0
08.07.2020 14:00:00 26,4 14,8 20 11 31 17 E 1016,7 22 0,0
08.07.2020 13:00:00 26,2 12,6 26 14 36 19 E 1016,7 - 0,0
08.07.2020 12:00:00 25,7 12,9 28 15 34 18 E 1016,7 - 0,0
08.07.2020 11:00:00 25,8 14,3 27 15 42 23 E 1016,4 22 0,0
08.07.2020 10:00:00 25,3 13,5 29 16 39 21 E 1016,1 - 0,0
08.07.2020 09:00:00 25,2 13,4 27 15 39 21 E 1015,7 - 0,0
08.07.2020 08:00:00 24,8 13,0 22 12 32 17 ESE 1015,6 25 0,0
08.07.2020 07:00:00 23,8 13,1 22 12 32 17 ESE 1015,2 - 0,0
08.07.2020 06:00:00 22,8 12,4 24 13 37 20 SE 1014,9 - 0,0
08.07.2020 05:00:00 22,5 13,6 29 16 38 21 SE 1014,7 - 0,0
08.07.2020 04:00:00 22,3 14,9 29 16 39 21 ESE 1014,8 - 0,0
08.07.2020 03:00:00 22,7 16,0 24 13 35 19 ESE 1014,9 - 0,0
08.07.2020 02:00:00 23,1 16,2 24 13 33 18 ESE 1014,8 - 0,0
08.07.2020 01:00:00 23,2 17,0 24 13 35 19 ESE 1014,9 - 0,0
08.07.2020 00:00:00 23,6 17,8 21 11 35 19 ESE 1014,7 - 0,0
07.07.2020 23:00:00 24,3 17,1 25 13 37 20 ESE 1014,3 - 0,0
07.07.2020 22:00:00 24,6 17,6 23 12 34 19 ESE 1013,7 - 0,0
07.07.2020 21:00:00 25,0 17,2 22 12 35 19 E 1012,9 - 0,0
07.07.2020 20:00:00 26,3 15,7 27 15 39 21 E 1012,5 - 0,0
07.07.2020 19:00:00 26,9 15,9 29 16 38 21 E 1012,5 - 0,0
07.07.2020 18:00:00 26,4 17,7 28 15 40 22 E 1012,3 - 0,0
07.07.2020 17:00:00 27,0 17,8 27 15 43 23 E 1012,7 25 0,0
07.07.2020 16:00:00 26,5 18,6 37 20 51 27 E 1012,6 - 0,0
07.07.2020 15:00:00 26,8 18,9 40 22 59 32 E 1012,4 - 0,0
07.07.2020 14:00:00 27,0 18,0 45 25 59 32 E 1011,9 25 0,0
07.07.2020 13:00:00 26,4 18,5 45 24 57 31 E 1011,7 - 0,0
07.07.2020 12:00:00 26,4 18,5 44 24 56 30 E 1011,0 - 0,0
07.07.2020 11:00:00 27,0 19,9 36 19 46 25 E 1010,7 25 0,0
07.07.2020 10:00:00 27,4 17,0 17 9 34 19 E 1010,2 - 0,0
07.07.2020 09:00:00 25,8 19,9 26 14 31 17 E 1009,7 - 0,0
07.07.2020 08:00:00 25,1 19,7 21 11 32 17 E 1008,8 25 0,0
07.07.2020 07:00:00 23,3 20,4 19 10 37 20 E 1008,2 - 0,0
07.07.2020 06:00:00 21,7 20,0 23 13 40 21 ESE 1007,6 - 0,0

tt = temperature
td = dewpoint
ff = wind speed
fx = gusts
dd = wind direction
ppp = reduced air pressure
vv = visibility
rr = precipitation

Next stations